DELTA 1 DEB

基本信息
目录编号:
9568
目录名称:
DELTA 1 DEB
国际标识:
1973-086FW
轨道中心:
EARTH
物体状态:
在轨
发射日期:
1973-11-06 UTC
轨道信息
数据来源: 国际轨道数据
星历时间: 2026-07-27T09:44:11+0800
半长轴: 8020.986km
偏心率: 0.0347032
轨道倾角: 101.479°
近地点辐角: 112.634°
升交点赤经: 43.420°
平近点角: 39.480°
近地点: 1364.495km
远地点: 1921.203km
周期: 119.152分钟
每日圈数: 12.085403
详细信息
发射场:
AFWTR
轨道高度:
LEO
数据来源:
AOE Integration Group
参考系:
TEME
时间系统:
UTC
历元类型:
SGP4
2D轨道图
3D轨道图
轨道高度分析图
轨道倾角分析图
轨道综合分析图
查看轨道综合分析图